Greybull, WY

1:47 AM MST on December 13, 2019 (GMT -0700)
South Big Horn County

Weather History for KGEY - October, 2019

Change the Weather History Date:

Monday, October 28, 2019

  Actual Average Record
Temperature  
Mean Temperature 18 °F 41 °F  
Max Temperature 27 °F 55 °F 73 °F (2018)
Min Temperature 10 °F 28 °F 22 °F (2010)
Degree Days  
Heating Degree Days 46 24  
Month to date heating degree days 683 515  
Since 1 July heating degree days 858 746  
Cooling Degree Days 0 0  
Month to date cooling degree days 0 0  
Year to date cooling degree days 733 669  
Moisture  
Dew Point 8 °F    
Average Humidity 66    
Maximum Humidity 85    
Minimum Humidity 46    
Precipitation  
Precipitation T in 0.01 in 0.50 in (1998)
Month to date precipitation 0.61 0.57  
Year to date precipitation 7.93 6.90  
Sea Level Pressure  
Sea Level Pressure 30.20 in    
Wind  
Wind Speed 7 mph ()    
Max Wind Speed 30 mph    
Max Gust Speed 38 mph    
Visibility 9.9 miles    
Events Snow    
T = Trace of Precipitation, MM = Missing Value Source: Averaged Metar Reports

Daily Weather History Graph

Daily Weather History Graph

Search for Another Location

Airport or City:

Astronomy

Oct. 28, 2019 Rise Set
Actual Time 7:44 AM MDT 6:07 PM MDT
Civil Twilight 7:14 AM MDT 6:37 PM MDT
Nautical Twilight 6:39 AM MDT 7:11 PM MDT
Astronomical Twilight 6:06 AM MDT 7:45 PM MDT
Moon 8:08 AM MDT (10/28) 6:53 PM MDT (10/28)
Length of Visible Light 11h 23m
Length of Day
10h 23m
New Moon, 1% of the Moon is Illuminated
Oct 28
New Moon
Nov 4
First Quarter
Nov 12
Full
Nov 19
Last Quarter
Nov 26
New

Hourly Weather History & Observations

Time (MDT) Temp. Windchill Dew Point Humidity Pressure Visibility Wind Dir Wind Speed Gust Speed Precip Events Conditions
12:53 AM 14.0 °F - 8.1 °F 77% 30.33 in 10.0 mi Calm Calm - N/A   Clear
1:53 AM 14.0 °F 6.5 °F 8.1 °F 77% 30.32 in 10.0 mi SSE 4.6 mph - N/A   Clear
2:53 AM 12.0 °F 5.9 °F 8.1 °F 84% 30.30 in 10.0 mi SE 3.5 mph - N/A   Clear
3:53 AM 12.0 °F 5.9 °F 6.1 °F 77% 30.27 in 10.0 mi SSE 3.5 mph - N/A   Clear
4:53 AM 12.9 °F - 6.1 °F 74% 30.25 in 10.0 mi Calm Calm - N/A   Clear
5:53 AM 12.0 °F 2.7 °F 5.0 °F 73% 30.25 in 10.0 mi South 5.8 mph - N/A   Clear
6:53 AM 10.9 °F 4.7 °F 5.0 °F 77% 30.24 in 10.0 mi South 3.5 mph - N/A   Clear
7:53 AM 12.0 °F - 6.1 °F 77% 30.24 in 10.0 mi Calm Calm - N/A   Clear
8:53 AM 12.9 °F - 6.1 °F 74% 30.24 in 10.0 mi Calm Calm - N/A   Overcast
9:53 AM 18.0 °F 8.7 °F 8.1 °F 65% 30.21 in 10.0 mi SSE 6.9 mph - N/A   Clear
10:53 AM 21.0 °F 13.4 °F 7.0 °F 55% 30.18 in 10.0 mi South 5.8 mph - N/A   Overcast
11:53 AM 23.0 °F 15.8 °F 7.0 °F 50% 30.17 in 10.0 mi SSE 5.8 mph - N/A   Overcast
12:53 PM 24.1 °F 16.0 °F 7.0 °F 48% 30.14 in 10.0 mi SE 6.9 mph - N/A   Overcast
1:53 PM 26.1 °F 20.5 °F 8.1 °F 47% 30.11 in 10.0 mi ESE 4.6 mph - N/A   Overcast
2:53 PM 26.1 °F 20.5 °F 9.0 °F 49% 30.11 in 10.0 mi ESE 4.6 mph - N/A   Overcast
3:53 PM 25.0 °F 19.3 °F 12.0 °F 58% 30.12 in 10.0 mi SSW 4.6 mph - N/A   Overcast
4:53 PM 25.0 °F 15.5 °F 15.1 °F 66% 30.14 in 10.0 mi North 9.2 mph - N/A   Overcast
5:11 PM 24.1 °F 11.5 °F 18.0 °F 77% 29.99 in 9.0 mi NNW 15.0 mph - 0.00 in Snow Light Snow
5:32 PM 21.9 °F 8.2 °F 18.0 °F 85% 30.00 in 9.0 mi NNW 16.1 mph 24.2 mph 0.00 in Snow Light Snow
5:53 PM 19.9 °F 3.5 °F 12.9 °F 74% 30.18 in 10.0 mi NNW 21.9 mph - 0.00 in   Overcast
6:04 PM 19.9 °F 3.5 °F 10.9 °F 68% 30.00 in 10.0 mi NNW 21.9 mph 32.2 mph N/A   Mostly Cloudy
6:53 PM 19.0 °F 3.2 °F 9.0 °F 65% 30.20 in 10.0 mi NNW 19.6 mph - N/A   Clear
7:53 PM 17.1 °F -1.7 °F 3.9 °F 56% 30.23 in 10.0 mi NNW 26.5 mph - N/A   Overcast
8:53 PM 15.1 °F -4.4 °F 3.9 °F 61% 30.27 in 10.0 mi NW 26.5 mph 34.5 mph N/A   Overcast
9:53 PM 15.1 °F -3.3 °F 1.9 °F 56% 30.29 in 10.0 mi NNW 23.0 mph 33.4 mph N/A   Overcast
10:53 PM 14.0 °F -5.1 °F 1.0 °F 56% 30.30 in 10.0 mi NNW 24.2 mph 38.0 mph N/A   Mostly Cloudy
11:53 PM 14.0 °F -5.1 °F 1.0 °F 56% 30.32 in 10.0 mi NNW 24.2 mph 35.7 mph N/A   Overcast